Tracking 17154 objects as of 1-August-2015
HD Live streaming from Space Station

SCOUT G-1 DEB

Track SCOUT G-1 DEB now!
10-day predictions
SCOUT G-1 DEB is classified as:


NORAD ID: 22707
Int'l Code: 1993-041D
Perigee: 717.5 km
Apogee: 927.0 km
Inclination: 90.1 °
Period: 101.2 minutes
Semi major axis: 7193 km
RCS: 0.041 m2 (small)
Launch date: June 25, 1993
Source: United States (US)

Note: This is SATELLITE DEBRIS
Your satellite tracking list
Your tracking list is empty





NASA's NSSDC Master Catalog

Two Line Element Set (TLE):
1 22707U 93041D   15213.05549607  .00000243  00000-0  92559-4 0  9996
2 22707 090.0595 243.2522 0145616 348.6272 011.1639 14.23032345144257

Source of the keplerian elements: AFSPC

N2YO: 216